Grand Junction, CO

8:54 AM MDT on August 20, 2019 (GMT -0600)
Walker

Weather History for KGJT - May, 2019

Change the Weather History Date:

Monday, May 13, 2019

  Actual Average Record
Temperature  
Mean Temperature 65 °F 61 °F  
Max Temperature 82 °F 75 °F 94 °F (1996)
Min Temperature 48 °F 46 °F 30 °F (2014)
Degree Days  
Heating Degree Days 0 5  
Month to date heating degree days 127 92  
Since 1 July heating degree days 5524 5526  
Cooling Degree Days 0 1  
Month to date cooling degree days 0 10  
Year to date cooling degree days 1 13  
Growing Degree Days 14 (Base 50)    
Moisture  
Dew Point 33 °F    
Average Humidity 38    
Maximum Humidity 61    
Minimum Humidity 15    
Precipitation  
Precipitation 0.00 in 0.03 in 0.34 in (1965)
Month to date precipitation 0.12 0.41  
Year to date precipitation 5.17 3.36  
Snow  
Snow 0.00 in 0.00 in 0.00 in (2002)
Month to date snowfall 0.0 0.1  
Since 1 July snowfall 17.4 19.1  
Snow Depth 0.00 in    
Sea Level Pressure  
Sea Level Pressure 29.83 in    
Wind  
Wind Speed 8 mph (ESE)    
Max Wind Speed 14 mph    
Max Gust Speed 21 mph    
Visibility 10 miles    
Events      
T = Trace of Precipitation, MM = Missing Value Source: NWS Daily Summary

Daily Weather History Graph

Daily Weather History Graph

Search for Another Location

Airport or City:

Astronomy

May. 13, 2019 Rise Set
Actual Time 6:03 AM MDT 8:18 PM MDT
Civil Twilight 5:33 AM MDT 8:48 PM MDT
Nautical Twilight 4:56 AM MDT 9:25 PM MDT
Astronomical Twilight 4:16 AM MDT 10:05 PM MDT
Moon 2:37 PM MDT (5/13) 3:19 AM MDT (5/13)
Length of Visible Light 15h 15m
Length of Day
14h 15m
Waxing Gibbous, 69% of the Moon is Illuminated
May 13
Waxing Gibbous
May 18
Full
May 26
Last Quarter
Jun 3
New
Jun 10
First Quarter

Hourly Weather History & Observations

Time (MDT) Temp. Dew Point Humidity Pressure Visibility Wind Dir Wind Speed Gust Speed Precip Events Conditions
12:53 AM 54.0 °F 34.0 °F 47% 29.82 in 10.0 mi East 4.6 mph - N/A   Clear
1:53 AM 53.1 °F 35.1 °F 50% 29.83 in 10.0 mi East 8.1 mph - N/A   Clear
2:53 AM 54.0 °F 34.0 °F 47% 29.82 in 10.0 mi ESE 11.5 mph - N/A   Clear
3:53 AM 54.0 °F 33.1 °F 45% 29.83 in 10.0 mi ESE 13.8 mph - N/A   Clear
4:53 AM 48.0 °F 35.1 °F 61% 29.86 in 10.0 mi East 9.2 mph - N/A   Clear
5:53 AM 50.0 °F 34.0 °F 54% 29.86 in 10.0 mi ESE 9.2 mph - N/A   Clear
6:53 AM 50.0 °F 36.0 °F 59% 29.89 in 10.0 mi ESE 9.2 mph - N/A   Clear
7:53 AM 55.9 °F 37.0 °F 49% 29.91 in 10.0 mi East 8.1 mph - N/A   Clear
8:53 AM 62.1 °F 37.0 °F 39% 29.90 in 10.0 mi SSE 6.9 mph - N/A   Clear
9:53 AM 64.9 °F 37.0 °F 36% 29.89 in 10.0 mi SSE 6.9 mph - N/A   Clear
10:53 AM 69.1 °F 35.1 °F 29% 29.90 in 10.0 mi Calm Calm - N/A   Clear
11:53 AM 73.0 °F 34.0 °F 24% 29.88 in 10.0 mi Variable 3.5 mph - N/A   Clear
12:53 PM 75.9 °F 33.1 °F 21% 29.85 in 10.0 mi WNW 5.8 mph - N/A   Clear
1:53 PM 78.1 °F 34.0 °F 20% 29.83 in 10.0 mi West 12.7 mph - N/A   Clear
2:53 PM 79.0 °F 26.1 °F 14% 29.81 in 10.0 mi West 10.4 mph 16.1 mph N/A   Clear
3:53 PM 81.0 °F 28.0 °F 14% 29.77 in 10.0 mi West 6.9 mph - N/A   Clear
4:53 PM 80.1 °F 28.0 °F 15% 29.78 in 10.0 mi WSW 5.8 mph - N/A   Clear
5:53 PM 81.0 °F 28.9 °F 15% 29.76 in 10.0 mi West 8.1 mph 17.3 mph N/A   Clear
6:53 PM 79.0 °F 28.9 °F 16% 29.77 in 10.0 mi West 5.8 mph - N/A   Clear
7:53 PM 73.9 °F 30.9 °F 21% 29.78 in 10.0 mi NW 6.9 mph - N/A   Clear
8:53 PM 68.0 °F 32.0 °F 26% 29.79 in 10.0 mi North 9.2 mph - N/A   Clear
9:53 PM 68.0 °F 30.0 °F 24% 29.79 in 10.0 mi North 9.2 mph - N/A   Clear
10:53 PM 63.0 °F 30.9 °F 30% 29.82 in 10.0 mi ESE 5.8 mph - N/A   Clear
11:53 PM 60.1 °F 32.0 °F 35% 29.82 in 10.0 mi East 4.6 mph - N/A   Clear